• In Moldova, Republic
  • List of Countries
  • For 7 days
  • Water Temperature
  • Satellite Maps
  • Weather Map
  • Weather Widgets
  • user-avatar
    Login

    Hourly Weather Naftalan

    Today, 22 January, Monday

    Time Temperature Precipitation Wind Pressure Humidity
    00:00 +9°C° 0 mm 2 mps 765 mmHg 59%
    01:00 +9°C° 0 mm 2 mps 765 mmHg 59%
    02:00 +8°C° 0 mm 2 mps 766 mmHg 60%
    03:00 +8°C° 0 mm 2 mps 765 mmHg 56%
    04:00 +8°C° 0 mm 2 mps 765 mmHg 56%
    05:00 +8°C° 0 mm 2 mps 765 mmHg 56%
    06:00 +8°C° 0 mm 2 mps 765 mmHg 56%
    07:00 +9°C° 0 mm 2 mps 765 mmHg 58%
    08:00 +10°C° 0 mm 3 mps 765 mmHg 60%
    09:00 +10°C° 0 mm 4 mps 764 mmHg 62%
    10:00 +12°C° 0 mm 4 mps 764 mmHg 60%
    11:00 +13°C° 0 mm 4 mps 763 mmHg 58%
    12:00 +14°C° 0 mm 5 mps 762 mmHg 56%
    13:00 +14°C° 0 mm 4 mps 762 mmHg 58%
    14:00 +13°C° 0 mm 4 mps 761 mmHg 60%
    15:00 +13°C° 0 mm 4 mps 760 mmHg 62%
    16:00 +12°C° 0 mm 3 mps 760 mmHg 69%
    17:00 +12°C° 0 mm 2 mps 760 mmHg 75%
    18:00 +10°C° 0 mm 2 mps 759 mmHg 81%
    19:00 +9°C° 0 mm 2 mps 759 mmHg 83%
    20:00 +9°C° 0 mm 2 mps 759 mmHg 85%
    21:00 +9°C° 0 mm 2 mps 759 mmHg 87%
    22:00 +8°C° 0 mm 2 mps 759 mmHg 84%
    23:00 +8°C° 0 mm 3 mps 759 mmHg 82%

    Tomorrow, 23 January, Tuesday

    Time Temperature Precipitation Wind Pressure Humidity
    00:00 +7°C° 0 mm 4 mps 758 mmHg 79%
    01:00 +7°C° 0 mm 4 mps 758 mmHg 70%
    02:00 +7°C° 0 mm 4 mps 758 mmHg 62%
    03:00 +7°C° 0 mm 4 mps 758 mmHg 53%
    04:00 +7°C° 0 mm 4 mps 759 mmHg 51%
    05:00 +7°C° 0 mm 4 mps 759 mmHg 49%
    06:00 +7°C° 0 mm 4 mps 759 mmHg 47%
    07:00 +8°C° 0 mm 4 mps 759 mmHg 43%
    08:00 +10°C° 0 mm 4 mps 759 mmHg 39%
    09:00 +11°C° 0 mm 4 mps 760 mmHg 35%
    10:00 +13°C° 0 mm 4 mps 759 mmHg 31%
    11:00 +14°C° 0 mm 3 mps 759 mmHg 26%
    12:00 +17°C° 0 mm 3 mps 759 mmHg 22%
    13:00 +17°C° 0 mm 3 mps 759 mmHg 23%
    14:00 +17°C° 0 mm 3 mps 759 mmHg 24%
    15:00 +17°C° 0 mm 3 mps 759 mmHg 25%
    16:00 +14°C° 0 mm 3 mps 759 mmHg 34%
    17:00 +12°C° 0 mm 3 mps 760 mmHg 44%
    18:00 +10°C° 0 mm 3 mps 760 mmHg 53%
    19:00 +10°C° 0 mm 3 mps 760 mmHg 58%
    20:00 +9°C° 0 mm 3 mps 760 mmHg 63%
    21:00 +9°C° 0 mm 2 mps 761 mmHg 68%
    22:00 +8°C° 0 mm 2 mps 761 mmHg 70%
    23:00 +8°C° 0 mm 2 mps 761 mmHg 73%

    Day after tomorrow, 24 January, Wednesday

    Time Temperature Precipitation Wind Pressure Humidity
    00:00 +8°C° 0 mm 2 mps 761 mmHg 76%
    01:00 +8°C° 0 mm 2 mps 761 mmHg 76%
    02:00 +9°C° 0 mm 1 mps 761 mmHg 76%
    03:00 +8°C° 0 mm 1 mps 761 mmHg 76%
    04:00 +8°C° 0 mm 1 mps 761 mmHg 73%
    05:00 +8°C° 0 mm 1 mps 762 mmHg 70%
    06:00 +8°C° 0 mm 1 mps 762 mmHg 68%
    07:00 +8°C° 0 mm 2 mps 762 mmHg 62%
    08:00 +9°C° 0 mm 2 mps 763 mmHg 56%
    09:00 +10°C° 0 mm 3 mps 764 mmHg 51%
    10:00 +11°C° 0 mm 3 mps 764 mmHg 49%
    11:00 +12°C° 0 mm 4 mps 764 mmHg 48%
    12:00 +12°C° 0 mm 4 mps 764 mmHg 46%
    13:00 +12°C° 0 mm 4 mps 765 mmHg 48%
    14:00 +12°C° 0 mm 4 mps 765 mmHg 49%
    15:00 +12°C° 0 mm 4 mps 765 mmHg 50%
    16:00 +11°C° 0 mm 4 mps 766 mmHg 59%
    17:00 +8°C° 0 mm 5 mps 766 mmHg 68%
    18:00 +7°C° 0 mm 5 mps 767 mmHg 76%
    19:00 +6°C° 0 mm 5 mps 768 mmHg 79%
    20:00 +6°C° 0 mm 5 mps 768 mmHg 81%
    21:00 +6°C° 0 mm 5 mps 769 mmHg 84%
    22:00 +5°C° 0 mm 5 mps 769 mmHg 85%
    23:00 +4°C° 0 mm 6 mps 769 mmHg 86%

    25 January, Thursday

    Time Temperature Precipitation Wind Pressure Humidity
    00:00 +4°C° 0 mm 6 mps 770 mmHg 87%
    01:00 +4°C° 0 mm 6 mps 770 mmHg 87%
    02:00 +3°C° 0 mm 6 mps 770 mmHg 87%
    03:00 +3°C° 0 mm 6 mps 771 mmHg 87%
    04:00 +3°C° 0 mm 6 mps 771 mmHg 87%
    05:00 +3°C° 0 mm 6 mps 771 mmHg 87%
    06:00 +3°C° 0 mm 6 mps 771 mmHg 86%
    07:00 +4°C° 0.1 mm 6 mps 772 mmHg 83%
    08:00 +4°C° 0.1 mm 6 mps 772 mmHg 80%
    09:00 +5°C° 0.1 mm 7 mps 773 mmHg 77%
    10:00 +5°C° 0.1 mm 7 mps 773 mmHg 76%
    11:00 +5°C° 0.1 mm 7 mps 772 mmHg 75%
    12:00 +5°C° 0.1 mm 7 mps 772 mmHg 74%
    13:00 +5°C° 0.1 mm 7 mps 772 mmHg 73%
    14:00 +5°C° 0.1 mm 7 mps 772 mmHg 73%
    15:00 +5°C° 0.1 mm 7 mps 772 mmHg 73%
    16:00 +5°C° 0 mm 7 mps 772 mmHg 74%
    17:00 +5°C° 0 mm 7 mps 772 mmHg 76%
    18:00 +4°C° 0 mm 7 mps 773 mmHg 77%
    19:00 +4°C° 0 mm 7 mps 773 mmHg 78%
    20:00 +4°C° 0 mm 7 mps 773 mmHg 78%
    21:00 +4°C° 0 mm 6 mps 773 mmHg 79%
    22:00 +4°C° 0 mm 6 mps 773 mmHg 79%
    23:00 +4°C° 0 mm 6 mps 773 mmHg 79%

    26 January, Friday

    Time Temperature Precipitation Wind Pressure Humidity
    00:00 +4°C° 0 mm 6 mps 773 mmHg 80%
    01:00 +3°C° 0.1 mm 6 mps 773 mmHg 80%
    02:00 +3°C° 0.1 mm 6 mps 773 mmHg 81%
    03:00 +3°C° 0.1 mm 6 mps 773 mmHg 81%
    04:00 +3°C° 0.3 mm 7 mps 773 mmHg 82%
    05:00 +3°C° 0.3 mm 7 mps 773 mmHg 82%
    06:00 +3°C° 0.3 mm 7 mps 773 mmHg 83%
    07:00 +3°C° 0.6 mm 7 mps 773 mmHg 83%
    08:00 +3°C° 0.6 mm 7 mps 773 mmHg 83%
    09:00 +3°C° 0.6 mm 7 mps 773 mmHg 83%
    10:00 +4°C° 0.2 mm 8 mps 773 mmHg 82%
    11:00 +4°C° 0.2 mm 8 mps 772 mmHg 81%
    12:00 +4°C° 0.2 mm 8 mps 772 mmHg 80%
    13:00 +4°C° 0.2 mm 8 mps 772 mmHg 79%
    14:00 +4°C° 0.2 mm 7 mps 771 mmHg 79%
    15:00 +4°C° 0.2 mm 7 mps 771 mmHg 78%
    16:00 +4°C° 0.2 mm 7 mps 771 mmHg 80%
    17:00 +4°C° 0.2 mm 7 mps 771 mmHg 81%
    18:00 +4°C° 0.2 mm 7 mps 772 mmHg 83%
    19:00 +4°C° 0.1 mm 7 mps 772 mmHg 82%
    20:00 +3°C° 0.1 mm 7 mps 772 mmHg 82%
    21:00 +3°C° 0.1 mm 7 mps 772 mmHg 81%
    22:00 +3°C° 0.2 mm 7 mps 772 mmHg 81%
    23:00 +3°C° 0.2 mm 7 mps 772 mmHg 81%

    27 January, Saturday

    Time Temperature Precipitation Wind Pressure Humidity
    00:00 +3°C° 0.2 mm 7 mps 772 mmHg 81%
    01:00 +3°C° 0.2 mm 7 mps 772 mmHg 81%
    02:00 +3°C° 0.2 mm 7 mps 772 mmHg 80%
    03:00 +2°C° 0.2 mm 8 mps 771 mmHg 80%
    04:00 +3°C° 0.2 mm 7 mps 772 mmHg 79%
    05:00 +3°C° 0.2 mm 7 mps 772 mmHg 79%
    06:00 +3°C° 0.2 mm 7 mps 772 mmHg 79%
    07:00 +3°C° 0.3 mm 7 mps 772 mmHg 78%
    08:00 +3°C° 0.3 mm 7 mps 772 mmHg 77%
    09:00 +3°C° 0.3 mm 7 mps 773 mmHg 77%
    10:00 +3°C° 0.2 mm 7 mps 772 mmHg 75%
    11:00 +4°C° 0.2 mm 7 mps 772 mmHg 74%
    12:00 +4°C° 0.2 mm 7 mps 772 mmHg 72%
    13:00 +4°C° 0.1 mm 7 mps 772 mmHg 72%
    14:00 +4°C° 0.1 mm 8 mps 772 mmHg 72%
    15:00 +4°C° 0.1 mm 8 mps 772 mmHg 71%
    16:00 +4°C° 0.1 mm 8 mps 773 mmHg 73%
    17:00 +2°C° 0.1 mm 8 mps 773 mmHg 75%
    18:00 +2°C° 0.1 mm 8 mps 774 mmHg 76%
    19:00 +2°C° 0.1 mm 8 mps 774 mmHg 76%
    20:00 +1°C° 0.1 mm 8 mps 774 mmHg 75%
    21:00 +1°C° 0.1 mm 8 mps 774 mmHg 75%
    22:00 +1°C° 0.1 mm 8 mps 774 mmHg 75%
    23:00 +1°C° 0.1 mm 8 mps 774 mmHg 76%
    Show more